This is the latest recevied weather packets stored in our database for station/object DL7HMX-13. If no packets are shown the sender has not sent any weather packets the latest 10 day(s).
| Time | Temp. | Humidity | Pressure | Rain* | Wind** | Luminosity | Snow |
|---|---|---|---|---|---|---|---|
| 1777905626 | 27.22° C | 32% | 1010.6 hPa | 0 mm | - | 304 W/m² | - |
| 1777905029 | 27.22° C | 32% | 1010.8 hPa | 0 mm | - | 310 W/m² | - |
| 1777904416 | 28.89° C | 32% | 1010.8 hPa | 0 mm | - | 422 W/m² | - |
| 1777903819 | 27.78° C | 32% | 1010.9 hPa | 0 mm | - | 492 W/m² | - |
| 1777903222 | 26.67° C | 34% | 1011 hPa | 0 mm | - | 393 W/m² | - |
| 1777902626 | 27.78° C | 33% | 1011.2 hPa | 0 mm | - | 399 W/m² | - |
| 1777902029 | 27.22° C | 34% | 1011.3 hPa | 0 mm | - | 515 W/m² | - |
| 1777901431 | 27.78° C | 33% | 1011.4 hPa | 0 mm | - | 540 W/m² | - |
| 1777900819 | 27.22° C | 35% | 1011.6 hPa | 0 mm | - | 566 W/m² | - |
| 1777900221 | 26.67° C | 35% | 1011.8 hPa | 0 mm | - | 542 W/m² | - |
| 1777899623 | 26.67° C | 36% | 1011.9 hPa | 0 mm | - | 554 W/m² | - |
| 1777899027 | 26.67° C | 36% | 1012.1 hPa | 0 mm | - | 605 W/m² | - |
| 1777898429 | 26.67° C | 36% | 1012.2 hPa | 0 mm | - | 611 W/m² | - |
| 1777897816 | 25.56° C | 38% | 1012.3 hPa | 0 mm | - | 632 W/m² | - |
| 1777897220 | 26.11° C | 38% | 1012.5 hPa | 0 mm | - | 627 W/m² | - |
| 1777896622 | 26.11° C | 38% | 1012.5 hPa | 0 mm | - | 644 W/m² | - |
| 1777896026 | 25° C | 40% | 1012.7 hPa | 0 mm | - | 640 W/m² | - |
| 1777895429 | 25° C | 40% | 1012.8 hPa | 0 mm | - | 584 W/m² | - |
| 1777894832 | 25.56° C | 39% | 1012.9 hPa | 0 mm | - | 628 W/m² | - |
| 1777894220 | 25° C | 40% | 1013 hPa | 0 mm | - | 661 W/m² | - |
| 1777893622 | 24.44° C | 42% | 1013.3 hPa | 0 mm | - | 659 W/m² | - |
| 1777893025 | 24.44° C | 42% | 1013.4 hPa | 0 mm | - | 654 W/m² | - |
| 1777892427 | 23.89° C | 43% | 1013.5 hPa | 0 mm | - | 648 W/m² | - |
| 1777891831 | 23.33° C | 45% | 1013.7 hPa | 0 mm | - | 490 W/m² | - |
| 1777891218 | 23.89° C | 45% | 1013.7 hPa | 0 mm | - | 539 W/m² | - |
* Rain latest hour (hover to see other rain measurements)
** Current wind speed in m/s (hover to see current wind gust speed)